Time,TemperatureF,DewpointF,PressureIn,WindDirection,WindDirectionDegrees,WindSpeedMPH,WindSpeedGustMPH,Humidity,HourlyPrecipIn,Conditions,Clouds,dailyrainin,SoftwareType,DateUTC
2013-03-09 00:01:00,29.1,21.5,26.71,SW,225,0.0,0.0,73,0.00,,,0.00,WUHU216HW,2013-03-09 05:01:00,
2013-03-09 00:06:00,28.9,21.3,26.71,South,180,4.9,4.9,73,0.00,,,0.00,WUHU216HW,2013-03-09 05:06:00,
2013-03-09 00:11:00,28.7,21.1,26.71,SSE,158,4.2,4.9,73,0.00,,,0.00,WUHU216HW,2013-03-09 05:11:00,
2013-03-09 00:16:00,28.7,21.1,26.71,SSE,158,2.4,4.9,73,0.00,,,0.00,WUHU216HW,2013-03-09 05:16:00,
2013-03-09 00:21:00,28.4,20.8,26.71,SSE,158,6.4,6.4,73,0.00,,,0.00,WUHU216HW,2013-03-09 05:21:00,
2013-03-09 00:26:00,28.2,20.6,26.71,SSE,158,8.5,8.5,73,0.00,,,0.00,WUHU216HW,2013-03-09 05:26:00,
2013-03-09 00:31:00,28.2,20.9,26.70,SE,135,8.0,8.7,74,0.00,,,0.00,WUHU216HW,2013-03-09 05:31:00,
2013-03-09 00:36:00,28.2,20.9,26.70,SSE,158,9.3,10.5,74,0.00,,,0.00,WUHU216HW,2013-03-09 05:36:00,
2013-03-09 00:41:00,28.2,20.9,26.70,SSE,158,9.3,10.5,74,0.00,,,0.00,WUHU216HW,2013-03-09 05:41:00,
2013-03-09 00:46:00,28.4,21.1,26.71,SSE,158,6.4,9.3,74,0.00,,,0.00,WUHU216HW,2013-03-09 05:46:00,
2013-03-09 00:51:00,28.5,21.3,26.71,SSE,158,3.3,6.4,74,0.00,,,0.00,WUHU216HW,2013-03-09 05:51:00,
2013-03-09 00:56:00,28.5,21.3,26.70,SSE,158,6.7,6.7,74,0.00,,,0.00,WUHU216HW,2013-03-09 05:56:00,
2013-03-09 01:01:00,28.4,21.1,26.71,SE,135,6.7,7.8,74,0.00,,,0.00,WUHU216HW,2013-03-09 06:01:00,
2013-03-09 01:06:00,28.2,20.9,26.70,SSE,158,5.8,7.8,74,0.00,,,0.00,WUHU216HW,2013-03-09 06:06:00,
2013-03-09 01:11:00,28.2,20.6,26.71,SSE,158,3.1,5.8,73,0.00,,,0.00,WUHU216HW,2013-03-09 06:11:00,
2013-03-09 01:16:00,28.0,20.4,26.71,SSE,158,0.0,5.8,73,0.00,,,0.00,WUHU216HW,2013-03-09 06:16:00,
2013-03-09 01:21:00,28.0,20.4,26.71,SSE,158,2.0,5.3,73,0.00,,,0.00,WUHU216HW,2013-03-09 06:21:00,
2013-03-09 01:26:00,28.2,20.6,26.71,SE,135,0.0,5.3,73,0.00,,,0.00,WUHU216HW,2013-03-09 06:26:00,
2013-03-09 01:31:00,28.2,20.6,26.71,SE,135,0.0,2.0,73,0.00,,,0.00,WUHU216HW,2013-03-09 06:31:00,
2013-03-09 01:36:00,28.2,20.6,26.71,SSE,158,0.0,0.0,73,0.00,,,0.00,WUHU216HW,2013-03-09 06:36:00,
2013-03-09 01:41:00,28.0,20.4,26.71,SSE,158,0.0,0.0,73,0.00,,,0.00,WUHU216HW,2013-03-09 06:41:00,
2013-03-09 01:46:00,28.0,20.4,26.71,South,180,0.0,0.0,73,0.00,,,0.00,WUHU216HW,2013-03-09 06:46:00,
2013-03-09 01:51:00,28.0,20.4,26.71,South,180,0.0,0.0,73,0.00,,,0.00,WUHU216HW,2013-03-09 06:51:00,
2013-03-09 01:56:00,28.0,20.4,26.71,South,180,0.0,0.0,73,0.00,,,0.00,WUHU216HW,2013-03-09 06:56:00,
2013-03-09 02:01:00,28.0,20.4,26.71,South,180,0.0,0.0,73,0.00,,,0.00,WUHU216HW,2013-03-09 07:01:00,
2013-03-09 02:06:00,28.2,20.6,26.71,South,180,0.0,0.0,73,0.00,,,0.00,WUHU216HW,2013-03-09 07:06:00,
2013-03-09 02:11:00,28.2,20.6,26.71,South,180,0.0,0.0,73,0.00,,,0.00,WUHU216HW,2013-03-09 07:11:00,
2013-03-09 02:16:00,28.2,20.6,26.71,South,180,0.0,0.0,73,0.00,,,0.00,WUHU216HW,2013-03-09 07:16:00,
2013-03-09 02:21:00,28.2,20.6,26.71,South,180,0.0,0.0,73,0.00,,,0.00,WUHU216HW,2013-03-09 07:21:00,
2013-03-09 02:26:00,28.2,20.6,26.71,South,180,0.0,0.0,73,0.00,,,0.00,WUHU216HW,2013-03-09 07:26:00,
2013-03-09 02:31:00,28.4,20.8,26.71,South,180,0.0,0.0,73,0.00,,,0.00,WUHU216HW,2013-03-09 07:31:00,
2013-03-09 02:36:00,28.2,20.6,26.70,South,180,0.0,0.0,73,0.00,,,0.00,WUHU216HW,2013-03-09 07:36:00,
2013-03-09 02:41:00,28.2,20.6,26.71,South,180,0.0,0.0,73,0.00,,,0.00,WUHU216HW,2013-03-09 07:41:00,
2013-03-09 02:47:00,28.2,20.3,26.70,South,180,0.0,0.0,72,0.00,,,0.00,WUHU216HW,2013-03-09 07:47:00,
2013-03-09 02:52:00,28.2,20.3,26.70,South,180,0.0,0.0,72,0.00,,,0.00,WUHU216HW,2013-03-09 07:52:00,
2013-03-09 02:57:00,28.0,20.1,26.70,South,180,0.0,0.0,72,0.00,,,0.00,WUHU216HW,2013-03-09 07:57:00,
2013-03-09 03:02:00,28.0,20.4,26.70,South,180,0.0,0.0,73,0.00,,,0.00,WUHU216HW,2013-03-09 08:02:00,
2013-03-09 03:07:00,27.6,20.1,26.70,South,180,0.0,0.0,73,0.00,,,0.00,WUHU216HW,2013-03-09 08:07:00,
2013-03-09 03:12:00,27.6,20.1,26.69,South,180,0.0,0.0,73,0.00,,,0.00,WUHU216HW,2013-03-09 08:12:00,
2013-03-09 03:17:00,27.6,20.1,26.70,South,180,0.0,0.0,73,0.00,,,0.00,WUHU216HW,2013-03-09 08:17:00,
2013-03-09 03:22:00,27.6,20.1,26.70,South,180,0.0,0.0,73,0.00,,,0.00,WUHU216HW,2013-03-09 08:22:00,
2013-03-09 03:27:00,27.6,20.1,26.69,South,180,0.0,0.0,73,0.00,,,0.00,WUHU216HW,2013-03-09 08:27:00,
2013-03-09 03:32:00,27.5,19.9,26.69,South,180,0.0,0.0,73,0.00,,,0.00,WUHU216HW,2013-03-09 08:32:00,
2013-03-09 03:37:00,27.5,19.9,26.69,South,180,0.0,0.0,73,0.00,,,0.00,WUHU216HW,2013-03-09 08:37:00,
2013-03-09 03:42:00,27.5,19.9,26.69,South,180,0.0,0.0,73,0.00,,,0.00,WUHU216HW,2013-03-09 08:42:00,
2013-03-09 03:47:00,27.6,20.1,26.69,South,180,0.0,0.0,73,0.00,,,0.00,WUHU216HW,2013-03-09 08:47:00,
2013-03-09 03:52:00,27.6,20.1,26.69,South,180,0.0,0.0,73,0.00,,,0.00,WUHU216HW,2013-03-09 08:52:00,
2013-03-09 03:57:00,27.6,20.1,26.69,South,180,0.0,0.0,73,0.00,,,0.00,WUHU216HW,2013-03-09 08:57:00,
2013-03-09 04:02:00,27.6,20.1,26.69,South,180,0.0,0.0,73,0.00,,,0.00,WUHU216HW,2013-03-09 09:02:00,
2013-03-09 04:07:00,27.6,20.1,26.69,South,180,0.0,0.0,73,0.00,,,0.00,WUHU216HW,2013-03-09 09:07:00,
2013-03-09 04:12:00,27.6,20.1,26.69,South,180,0.0,0.0,73,0.00,,,0.00,WUHU216HW,2013-03-09 09:12:00,
2013-03-09 04:17:00,27.6,20.1,26.68,South,180,0.0,0.0,73,0.00,,,0.00,WUHU216HW,2013-03-09 09:17:00,
2013-03-09 04:22:00,27.6,20.1,26.69,South,180,0.0,0.0,73,0.00,,,0.00,WUHU216HW,2013-03-09 09:22:00,
2013-03-09 04:27:00,27.6,20.1,26.69,South,180,0.0,0.0,73,0.00,,,0.00,WUHU216HW,2013-03-09 09:27:00,
2013-03-09 04:32:00,27.6,20.1,26.68,South,180,0.0,0.0,73,0.00,,,0.00,WUHU216HW,2013-03-09 09:32:00,
2013-03-09 04:37:00,27.6,20.1,26.68,South,180,0.0,0.0,73,0.00,,,0.00,WUHU216HW,2013-03-09 09:37:00,
2013-03-09 04:42:00,27.6,19.8,26.68,South,180,0.0,0.0,72,0.00,,,0.00,WUHU216HW,2013-03-09 09:42:00,
2013-03-09 04:47:00,27.6,20.1,26.68,South,180,0.0,0.0,73,0.00,,,0.00,WUHU216HW,2013-03-09 09:47:00,
2013-03-09 04:52:00,27.5,19.9,26.68,South,180,0.0,0.0,73,0.00,,,0.00,WUHU216HW,2013-03-09 09:52:00,
2013-03-09 04:57:00,27.6,20.1,26.68,South,180,0.0,0.0,73,0.00,,,0.00,WUHU216HW,2013-03-09 09:57:00,
2013-03-09 05:02:00,27.5,19.9,26.68,South,180,0.0,0.0,73,0.00,,,0.00,WUHU216HW,2013-03-09 10:02:00,
2013-03-09 05:07:00,27.5,19.9,26.68,South,180,0.0,0.0,73,0.00,,,0.00,WUHU216HW,2013-03-09 10:07:00,
2013-03-09 05:12:00,27.3,19.7,26.68,South,180,0.0,0.0,73,0.00,,,0.00,WUHU216HW,2013-03-09 10:12:00,
2013-03-09 05:17:00,27.1,19.5,26.68,South,180,0.0,0.0,73,0.00,,,0.00,WUHU216HW,2013-03-09 10:17:00,
2013-03-09 05:22:00,27.1,19.5,26.69,South,180,0.0,0.0,73,0.00,,,0.00,WUHU216HW,2013-03-09 10:22:00,
2013-03-09 05:27:00,27.1,19.5,26.68,South,180,0.0,0.0,73,0.00,,,0.00,WUHU216HW,2013-03-09 10:27:00,
2013-03-09 05:32:00,27.1,19.5,26.68,South,180,0.0,0.0,73,0.00,,,0.00,WUHU216HW,2013-03-09 10:32:00,
2013-03-09 05:37:00,27.1,19.5,26.69,South,180,0.0,0.0,73,0.00,,,0.00,WUHU216HW,2013-03-09 10:37:00,
2013-03-09 05:42:00,27.1,19.5,26.69,South,180,0.0,0.0,73,0.00,,,0.00,WUHU216HW,2013-03-09 10:42:00,
2013-03-09 05:47:00,27.1,19.5,26.69,South,180,0.0,0.0,73,0.00,,,0.00,WUHU216HW,2013-03-09 10:47:00,
2013-03-09 05:52:00,27.1,19.5,26.69,South,180,0.0,0.0,73,0.00,,,0.00,WUHU216HW,2013-03-09 10:52:00,
2013-03-09 05:57:00,27.1,19.5,26.69,South,180,0.0,0.0,73,0.00,,,0.00,WUHU216HW,2013-03-09 10:57:00,
2013-03-09 06:02:00,27.3,19.7,26.69,South,180,0.0,0.0,73,0.00,,,0.00,WUHU216HW,2013-03-09 11:02:00,
2013-03-09 06:07:00,27.3,19.7,26.69,South,180,0.0,0.0,73,0.00,,,0.00,WUHU216HW,2013-03-09 11:07:00,
2013-03-09 06:12:00,27.5,19.9,26.69,South,180,0.0,0.0,73,0.00,,,0.00,WUHU216HW,2013-03-09 11:12:00,
2013-03-09 06:17:00,27.5,19.9,26.69,South,180,0.0,0.0,73,0.00,,,0.00,WUHU216HW,2013-03-09 11:17:00,
2013-03-09 06:22:00,27.5,19.9,26.69,South,180,0.0,0.0,73,0.00,,,0.00,WUHU216HW,2013-03-09 11:22:00,
2013-03-09 06:27:00,27.5,19.6,26.69,South,180,0.0,0.0,72,0.00,,,0.00,WUHU216HW,2013-03-09 11:27:00,
2013-03-09 06:32:00,27.3,19.4,26.69,South,180,0.0,0.0,72,0.00,,,0.00,WUHU216HW,2013-03-09 11:32:00,
2013-03-09 06:37:00,27.3,19.4,26.69,South,180,0.0,0.0,72,0.00,,,0.00,WUHU216HW,2013-03-09 11:37:00,
2013-03-09 06:42:00,27.3,19.4,26.69,South,180,0.0,0.0,72,0.00,,,0.00,WUHU216HW,2013-03-09 11:42:00,
2013-03-09 06:47:00,27.3,19.4,26.69,South,180,0.0,0.0,72,0.00,,,0.00,WUHU216HW,2013-03-09 11:47:00,
2013-03-09 06:52:00,27.3,19.4,26.69,South,180,0.0,0.0,72,0.00,,,0.00,WUHU216HW,2013-03-09 11:52:00,
2013-03-09 06:57:00,27.3,19.4,26.69,South,180,0.0,0.0,72,0.00,,,0.00,WUHU216HW,2013-03-09 11:57:00,
2013-03-09 07:02:00,27.3,19.4,26.69,South,180,0.0,0.0,72,0.00,,,0.00,WUHU216HW,2013-03-09 12:02:00,
2013-03-09 07:07:00,27.5,19.9,26.70,South,180,0.0,0.0,73,0.00,,,0.00,WUHU216HW,2013-03-09 12:07:00,
2013-03-09 07:12:00,27.6,20.1,26.70,South,180,0.0,0.0,73,0.00,,,0.00,WUHU216HW,2013-03-09 12:12:00,
2013-03-09 07:18:00,27.6,19.8,26.70,South,180,0.0,0.0,72,0.00,,,0.00,WUHU216HW,2013-03-09 12:18:00,
2013-03-09 07:23:00,27.8,20.0,26.71,South,180,0.0,0.0,72,0.00,,,0.00,WUHU216HW,2013-03-09 12:23:00,
2013-03-09 07:28:00,27.8,20.0,26.70,South,180,0.0,0.0,72,0.00,,,0.00,WUHU216HW,2013-03-09 12:28:00,
2013-03-09 07:33:00,27.8,20.0,26.70,South,180,0.0,0.0,72,0.00,,,0.00,WUHU216HW,2013-03-09 12:33:00,
2013-03-09 07:38:00,27.8,20.0,26.70,South,180,0.0,0.0,72,0.00,,,0.00,WUHU216HW,2013-03-09 12:38:00,
2013-03-09 08:11:00,29.4,21.8,26.71,South,180,0.0,0.0,73,0.00,,,0.00,WUHU216HW,2013-03-09 13:11:00,
2013-03-09 08:16:00,29.4,21.8,26.71,South,180,0.0,0.0,73,0.00,,,0.00,WUHU216HW,2013-03-09 13:16:00,
2013-03-09 08:21:00,29.8,22.1,26.72,South,180,0.0,0.0,73,0.00,,,0.00,WUHU216HW,2013-03-09 13:21:00,
2013-03-09 08:26:00,30.0,22.3,26.72,South,180,0.0,0.0,73,0.00,,,0.00,WUHU216HW,2013-03-09 13:26:00,
2013-03-09 08:31:00,30.3,22.7,26.72,South,180,0.0,0.0,73,0.00,,,0.00,WUHU216HW,2013-03-09 13:31:00,
2013-03-09 08:36:00,30.5,22.5,26.72,South,180,0.0,0.0,72,0.00,,,0.00,WUHU216HW,2013-03-09 13:36:00,
2013-03-09 08:41:00,30.7,22.7,26.72,South,180,0.0,0.0,72,0.00,,,0.00,WUHU216HW,2013-03-09 13:41:00,
2013-03-09 08:46:00,31.1,23.1,26.73,South,180,0.0,0.0,72,0.00,,,0.00,WUHU216HW,2013-03-09 13:46:00,
2013-03-09 08:51:00,31.6,23.9,26.73,South,180,0.0,0.0,73,0.00,,,0.00,WUHU216HW,2013-03-09 13:51:00,
2013-03-09 08:56:00,32.1,24.4,26.73,South,180,0.0,0.0,73,0.00,,,0.00,WUHU216HW,2013-03-09 13:56:00,
2013-03-09 09:01:00,32.7,24.9,26.74,South,180,0.0,0.0,73,0.00,,,0.00,WUHU216HW,2013-03-09 14:01:00,
2013-03-09 09:06:00,33.6,25.7,26.74,South,180,0.0,0.0,73,0.00,,,0.00,WUHU216HW,2013-03-09 14:06:00,
2013-03-09 09:11:00,34.1,25.9,26.74,South,180,0.0,0.0,72,0.00,,,0.00,WUHU216HW,2013-03-09 14:11:00,
2013-03-09 09:16:00,34.8,26.7,26.74,South,180,0.0,0.0,72,0.00,,,0.00,WUHU216HW,2013-03-09 14:16:00,
2013-03-09 09:21:00,35.4,27.2,26.73,SSE,158,0.0,0.0,72,0.00,,,0.00,WUHU216HW,2013-03-09 14:21:00,
2013-03-09 09:26:00,36.3,27.8,26.73,SSE,158,0.0,0.0,71,0.00,,,0.00,WUHU216HW,2013-03-09 14:26:00,
2013-03-09 09:31:00,37.2,28.2,26.74,SSE,158,2.4,2.4,70,0.00,,,0.00,WUHU216HW,2013-03-09 14:31:00,
2013-03-09 09:36:00,37.9,28.6,26.73,SSE,158,2.6,2.9,69,0.00,,,0.00,WUHU216HW,2013-03-09 14:36:00,
2013-03-09 09:41:00,38.4,28.7,26.73,SSE,158,1.3,4.2,68,0.00,,,0.00,WUHU216HW,2013-03-09 14:41:00,
2013-03-09 09:46:00,39.0,28.9,26.73,SE,135,2.2,4.2,67,0.00,,,0.00,WUHU216HW,2013-03-09 14:46:00,
2013-03-09 09:51:00,39.7,29.2,26.73,SE,135,4.2,4.2,66,0.00,,,0.00,WUHU216HW,2013-03-09 14:51:00,
2013-03-09 09:56:00,40.2,29.3,26.73,SSE,158,5.5,5.5,65,0.00,,,0.00,WUHU216HW,2013-03-09 14:56:00,
2013-03-09 10:01:00,40.8,29.5,26.73,SE,135,2.2,5.5,64,0.00,,,0.00,WUHU216HW,2013-03-09 15:01:00,
2013-03-09 10:06:00,41.1,29.8,26.74,SE,135,0.0,2.2,64,0.00,,,0.00,WUHU216HW,2013-03-09 15:06:00,
2013-03-09 10:11:00,41.7,30.3,26.73,SE,135,0.0,2.2,64,0.00,,,0.00,WUHU216HW,2013-03-09 15:11:00,
2013-03-09 10:16:00,41.5,29.8,26.74,SE,135,0.0,0.0,63,0.00,,,0.00,WUHU216HW,2013-03-09 15:16:00,
2013-03-09 10:22:00,41.5,30.2,26.74,SE,135,0.0,0.0,64,0.00,,,0.00,WUHU216HW,2013-03-09 15:22:00,
2013-03-09 10:27:00,41.9,30.5,26.74,SE,135,0.0,0.0,64,0.00,,,0.00,WUHU216HW,2013-03-09 15:27:00,
2013-03-09 10:32:00,42.6,30.8,26.74,SE,135,4.9,4.9,63,0.00,,,0.00,WUHU216HW,2013-03-09 15:32:00,
2013-03-09 10:37:00,43.5,30.9,26.73,SE,135,0.8,4.9,61,0.00,,,0.00,WUHU216HW,2013-03-09 15:37:00,
2013-03-09 10:42:00,44.2,31.2,26.73,SE,135,0.0,4.9,60,0.00,,,0.00,WUHU216HW,2013-03-09 15:42:00,
2013-03-09 10:47:00,45.1,31.2,26.73,SE,135,4.0,4.0,58,0.00,,,0.00,WUHU216HW,2013-03-09 15:47:00,
2013-03-09 10:52:00,46.0,30.6,26.72,SSE,158,2.2,5.8,55,0.00,,,0.00,WUHU216HW,2013-03-09 15:52:00,
2013-03-09 10:57:00,46.5,31.1,26.72,SE,135,2.0,5.8,55,0.00,,,0.00,WUHU216HW,2013-03-09 15:57:00,
2013-03-09 11:02:00,47.1,31.2,26.72,SE,135,7.6,7.6,54,0.00,,,0.00,WUHU216HW,2013-03-09 16:02:00,
2013-03-09 11:07:00,47.4,30.3,26.72,SE,135,4.0,7.6,50,0.00,,,0.00,WUHU216HW,2013-03-09 16:07:00,
2013-03-09 11:12:00,48.0,29.6,26.71,SE,135,0.0,7.3,49,0.00,,,0.00,WUHU216HW,2013-03-09 16:12:00,
2013-03-09 11:17:00,48.5,30.1,26.71,SE,135,0.0,4.0,49,0.00,,,0.00,WUHU216HW,2013-03-09 16:17:00,
2013-03-09 11:22:00,48.7,30.3,26.72,SSE,158,0.0,5.3,49,0.00,,,0.00,WUHU216HW,2013-03-09 16:22:00,
2013-03-09 11:27:00,49.2,31.4,26.71,SSE,158,0.0,5.3,50,0.00,,,0.00,WUHU216HW,2013-03-09 16:27:00,
2013-03-09 11:32:00,49.6,31.2,26.72,SE,135,0.0,5.1,49,0.00,,,0.00,WUHU216HW,2013-03-09 16:32:00,
2013-03-09 11:37:00,50.1,31.2,26.72,SE,135,2.4,3.5,48,0.00,,,0.00,WUHU216HW,2013-03-09 16:37:00,
2013-03-09 11:42:00,50.7,31.1,26.72,SSE,158,0.0,3.5,47,0.00,,,0.00,WUHU216HW,2013-03-09 16:42:00,
2013-03-09 11:47:00,51.0,31.4,26.72,SSE,158,5.5,5.5,47,0.00,,,0.00,WUHU216HW,2013-03-09 16:47:00,
2013-03-09 11:53:00,51.8,31.9,26.72,SE,135,6.2,6.2,45,0.00,,,0.00,WUHU216HW,2013-03-09 16:53:00,
2013-03-09 11:58:00,52.1,31.3,26.72,SSE,158,0.0,6.2,45,0.00,,,0.00,WUHU216HW,2013-03-09 16:58:00,
2013-03-09 12:03:00,52.3,30.9,26.72,SE,135,6.0,6.2,44,0.00,,,0.00,WUHU216HW,2013-03-09 17:03:00,
2013-03-09 12:08:00,52.8,31.4,26.72,SE,135,8.2,8.2,44,0.00,,,0.00,WUHU216HW,2013-03-09 17:08:00,
2013-03-09 12:13:00,53.0,31.0,26.72,SE,135,3.8,8.2,43,0.00,,,0.00,WUHU216HW,2013-03-09 17:13:00,
2013-03-09 12:18:00,53.4,31.3,26.72,SE,135,0.0,7.6,43,0.00,,,0.00,WUHU216HW,2013-03-09 17:18:00,
2013-03-09 12:23:00,53.7,31.6,26.71,ESE,113,0.0,4.6,43,0.00,,,0.00,WUHU216HW,2013-03-09 17:23:00,
2013-03-09 12:28:00,53.7,31.1,26.72,SE,135,0.0,1.3,42,0.00,,,0.00,WUHU216HW,2013-03-09 17:28:00,
2013-03-09 12:33:00,53.9,31.2,26.72,SE,135,6.9,6.9,42,0.00,,,0.00,WUHU216HW,2013-03-09 17:33:00,
2013-03-09 12:38:00,54.3,31.6,26.71,East,90,4.6,6.9,42,0.00,,,0.00,WUHU216HW,2013-03-09 17:38:00,
2013-03-09 12:43:00,54.6,31.3,26.71,SE,135,7.1,7.1,41,0.00,,,0.00,WUHU216HW,2013-03-09 17:43:00,
2013-03-09 12:48:00,55.2,32.4,26.71,SE,135,0.0,7.1,42,0.00,,,0.00,WUHU216HW,2013-03-09 17:48:00,
2013-03-09 12:53:00,55.4,32.0,26.71,SSE,158,7.1,7.6,41,0.00,,,0.00,WUHU216HW,2013-03-09 17:53:00,
2013-03-09 12:58:00,55.7,32.3,26.71,SE,135,8.0,8.0,41,0.00,,,0.00,WUHU216HW,2013-03-09 17:58:00,
2013-03-09 13:03:00,56.1,32.1,26.71,SSE,158,0.0,8.0,40,0.00,,,0.00,WUHU216HW,2013-03-09 18:03:00,
2013-03-09 13:09:00,56.1,31.4,26.71,SE,135,0.0,2.9,39,0.00,,,0.00,WUHU216HW,2013-03-09 18:09:00,
2013-03-09 13:14:00,56.3,31.5,26.70,SE,135,0.0,2.9,39,0.00,,,0.00,WUHU216HW,2013-03-09 18:14:00,
2013-03-09 13:19:00,56.6,31.8,26.70,SSE,158,3.5,3.8,39,0.00,,,0.00,WUHU216HW,2013-03-09 18:19:00,
2013-03-09 13:24:00,57.0,30.8,26.70,SSE,158,1.1,3.8,37,0.00,,,0.00,WUHU216HW,2013-03-09 18:24:00,
2013-03-09 13:29:00,57.3,31.8,26.70,SE,135,2.4,3.5,38,0.00,,,0.00,WUHU216HW,2013-03-09 18:29:00,
2013-03-09 13:34:00,57.3,29.7,26.70,SE,135,0.0,3.8,35,0.00,,,0.00,WUHU216HW,2013-03-09 18:34:00,
2013-03-09 13:39:00,57.5,31.2,26.70,SE,135,0.0,3.8,37,0.00,,,0.00,WUHU216HW,2013-03-09 18:39:00,
2013-03-09 13:44:00,57.9,31.6,26.70,SE,135,0.0,0.6,37,0.00,,,0.00,WUHU216HW,2013-03-09 18:44:00,
2013-03-09 13:49:00,57.9,30.9,26.69,SE,135,3.1,3.5,36,0.00,,,0.00,WUHU216HW,2013-03-09 18:49:00,
2013-03-09 13:54:00,57.9,30.2,26.69,WSW,248,0.0,4.6,35,0.00,,,0.00,WUHU216HW,2013-03-09 18:54:00,
2013-03-09 13:59:00,58.1,31.0,26.69,WSW,248,6.9,6.9,36,0.00,,,0.00,WUHU216HW,2013-03-09 18:59:00,
2013-03-09 14:04:00,57.9,30.9,26.69,WSW,248,0.0,6.9,36,0.00,,,0.00,WUHU216HW,2013-03-09 19:04:00,
2013-03-09 14:10:00,57.9,30.9,26.69,WSW,248,3.1,6.9,36,0.00,,,0.00,WUHU216HW,2013-03-09 19:10:00,
2013-03-09 14:15:00,57.7,30.0,26.69,WSW,248,0.8,5.5,35,0.00,,,0.00,WUHU216HW,2013-03-09 19:15:00,
2013-03-09 14:20:00,57.5,30.5,26.68,WSW,248,7.1,7.6,36,0.00,,,0.00,WUHU216HW,2013-03-09 19:20:00,
2013-03-09 14:25:00,57.5,31.2,26.67,WSW,248,3.8,7.6,37,0.00,,,0.00,WUHU216HW,2013-03-09 19:25:00,
2013-03-09 14:30:00,57.5,30.5,26.67,WSW,248,5.8,7.1,36,0.00,,,0.00,WUHU216HW,2013-03-09 19:30:00,
2013-03-09 14:35:00,57.5,29.8,26.67,WSW,248,7.6,7.6,35,0.00,,,0.00,WUHU216HW,2013-03-09 19:35:00,
2013-03-09 14:40:00,57.3,30.4,26.67,WSW,248,4.9,7.6,36,0.00,,,0.00,WUHU216HW,2013-03-09 19:40:00,
2013-03-09 14:45:00,57.3,31.1,26.67,WSW,248,6.2,7.6,37,0.00,,,0.00,WUHU216HW,2013-03-09 19:45:00,
2013-03-09 14:50:00,57.0,30.1,26.67,SE,135,6.4,7.3,36,0.00,,,0.00,WUHU216HW,2013-03-09 19:50:00,
2013-03-09 14:56:00,57.0,30.1,26.67,SE,135,6.9,6.9,36,0.00,,,0.00,WUHU216HW,2013-03-09 19:56:00,
2013-03-09 15:01:00,57.0,30.8,26.67,WSW,248,4.0,8.7,37,0.00,,,0.00,WUHU216HW,2013-03-09 20:01:00,
2013-03-09 15:06:00,56.8,30.6,26.67,SE,135,0.0,8.7,37,0.00,,,0.00,WUHU216HW,2013-03-09 20:06:00,
2013-03-09 15:11:00,56.8,30.6,26.67,WSW,248,8.0,8.0,37,0.00,,,0.00,WUHU216HW,2013-03-09 20:11:00,
2013-03-09 15:16:00,56.8,31.3,26.67,SE,135,7.8,8.0,38,0.00,,,0.00,WUHU216HW,2013-03-09 20:16:00,
2013-03-09 15:21:00,56.4,30.3,26.67,WSW,248,7.8,8.5,37,0.00,,,0.00,WUHU216HW,2013-03-09 20:21:00,
2013-03-09 15:26:00,56.4,31.0,26.67,SE,135,7.8,8.5,38,0.00,,,0.00,WUHU216HW,2013-03-09 20:26:00,
2013-03-09 15:31:00,56.4,31.0,26.67,SSE,158,2.4,7.8,38,0.00,,,0.00,WUHU216HW,2013-03-09 20:31:00,
2013-03-09 15:36:00,56.4,31.0,26.67,WSW,248,7.8,7.8,38,0.00,,,0.00,WUHU216HW,2013-03-09 20:36:00,
2013-03-09 15:41:00,56.1,30.0,26.67,WSW,248,6.9,7.8,37,0.00,,,0.00,WUHU216HW,2013-03-09 20:41:00,
2013-03-09 15:46:00,55.9,29.8,26.67,SE,135,6.2,8.2,37,0.00,,,0.00,WUHU216HW,2013-03-09 20:46:00,
2013-03-09 15:51:00,55.9,30.5,26.67,SE,135,11.4,11.4,38,0.00,,,0.00,WUHU216HW,2013-03-09 20:51:00,
2013-03-09 15:57:00,55.7,29.6,26.67,South,180,7.8,11.4,38,0.00,,,0.00,WUHU216HW,2013-03-09 20:57:00,
2013-03-09 16:02:00,55.5,29.5,26.67,SSE,158,8.7,8.7,37,0.00,,,0.00,WUHU216HW,2013-03-09 21:02:00,
2013-03-09 16:07:00,55.2,28.4,26.67,WSW,248,7.3,9.6,36,0.00,,,0.00,WUHU216HW,2013-03-09 21:07:00,
2013-03-09 16:12:00,55.0,29.0,26.67,WSW,248,8.2,9.6,37,0.00,,,0.00,WUHU216HW,2013-03-09 21:12:00,
2013-03-09 16:17:00,54.8,28.8,26.67,WSW,248,8.2,8.2,37,0.00,,,0.00,WUHU216HW,2013-03-09 21:17:00,
2013-03-09 16:22:00,54.3,28.4,26.67,SSE,158,7.3,8.2,37,0.00,,,0.00,WUHU216HW,2013-03-09 21:22:00,
2013-03-09 16:27:00,54.3,27.7,26.67,SE,135,12.3,12.3,36,0.00,,,0.00,WUHU216HW,2013-03-09 21:27:00,
2013-03-09 16:32:00,53.9,27.4,26.67,SSE,158,9.3,12.3,36,0.00,,,0.00,WUHU216HW,2013-03-09 21:32:00,
2013-03-09 16:37:00,53.7,28.6,26.67,SSE,158,7.1,12.3,38,0.00,,,0.00,WUHU216HW,2013-03-09 21:37:00,
2013-03-09 16:43:00,53.9,28.7,26.67,SE,135,8.2,8.9,38,0.00,,,0.00,WUHU216HW,2013-03-09 21:43:00,
2013-03-09 16:48:00,53.9,28.7,26.67,SE,135,10.0,10.0,38,0.00,,,0.00,WUHU216HW,2013-03-09 21:48:00,
2013-03-09 16:53:00,54.1,28.9,26.67,SE,135,2.0,10.0,38,0.00,,,0.00,WUHU216HW,2013-03-09 21:53:00,
2013-03-09 16:58:00,53.9,28.7,26.67,WSW,248,6.0,10.0,38,0.00,,,0.00,WUHU216HW,2013-03-09 21:58:00,
2013-03-09 17:03:00,53.9,28.7,26.67,SE,135,9.1,9.1,38,0.00,,,0.00,WUHU216HW,2013-03-09 22:03:00,
2013-03-09 17:08:00,53.7,29.3,26.67,WSW,248,5.8,9.1,39,0.00,,,0.00,WUHU216HW,2013-03-09 22:08:00,
2013-03-09 17:13:00,53.7,29.3,26.67,WSW,248,5.8,7.6,39,0.00,,,0.00,WUHU216HW,2013-03-09 22:13:00,
2013-03-09 17:18:00,53.7,29.3,26.67,WSW,248,5.8,5.8,39,0.00,,,0.00,WUHU216HW,2013-03-09 22:18:00,
2013-03-09 17:23:00,53.7,29.3,26.67,SE,135,6.9,6.9,39,0.00,,,0.00,WUHU216HW,2013-03-09 22:23:00,
2013-03-09 17:28:00,53.2,28.8,26.67,WSW,248,7.6,7.6,39,0.00,,,0.00,WUHU216HW,2013-03-09 22:28:00,
2013-03-09 17:33:00,53.0,28.6,26.67,WSW,248,6.7,7.6,39,0.00,,,0.00,WUHU216HW,2013-03-09 22:33:00,
2013-03-09 17:38:00,52.7,29.0,26.67,WSW,248,7.3,8.7,40,0.00,,,0.00,WUHU216HW,2013-03-09 22:38:00,
2013-03-09 17:43:00,52.5,28.8,26.67,WSW,248,10.5,10.5,40,0.00,,,0.00,WUHU216HW,2013-03-09 22:43:00,
2013-03-09 17:48:00,52.5,28.8,26.67,WSW,248,10.5,10.5,40,0.00,,,0.00,WUHU216HW,2013-03-09 22:48:00,
2013-03-09 17:53:00,52.5,28.8,26.67,SE,135,6.2,10.5,40,0.00,,,0.00,WUHU216HW,2013-03-09 22:53:00,
2013-03-09 17:58:00,51.9,28.2,26.68,SSE,158,10.0,10.5,40,0.00,,,0.00,WUHU216HW,2013-03-09 22:58:00,
2013-03-09 18:03:00,51.4,27.8,26.67,SSE,158,1.5,10.0,40,0.00,,,0.00,WUHU216HW,2013-03-09 23:03:00,
2013-03-09 18:08:00,51.2,28.2,26.67,SSE,158,6.4,8.2,41,0.00,,,0.00,WUHU216HW,2013-03-09 23:08:00,
2013-03-09 18:13:00,50.7,27.9,26.68,SSE,158,1.5,7.6,41,0.00,,,0.00,WUHU216HW,2013-03-09 23:13:00,
2013-03-09 18:18:00,50.5,27.6,26.68,SE,135,8.9,8.9,41,0.00,,,0.00,WUHU216HW,2013-03-09 23:18:00,
2013-03-09 18:23:00,50.3,27.4,26.68,SSE,158,6.7,8.9,41,0.00,,,0.00,WUHU216HW,2013-03-09 23:23:00,
2013-03-09 18:28:00,49.8,27.4,26.68,SE,135,7.6,8.9,41,0.00,,,0.00,WUHU216HW,2013-03-09 23:28:00,
2013-03-09 18:33:00,49.8,27.5,26.69,SE,135,7.6,7.6,42,0.00,,,0.00,WUHU216HW,2013-03-09 23:33:00,
2013-03-09 18:38:00,49.2,27.5,26.69,SE,135,3.3,7.6,43,0.00,,,0.00,WUHU216HW,2013-03-09 23:38:00,
2013-03-09 18:44:00,49.1,27.2,26.69,SE,135,1.7,7.6,43,0.00,,,0.00,WUHU216HW,2013-03-09 23:44:00,
2013-03-09 18:49:00,48.9,27.2,26.69,SE,135,4.9,7.1,43,0.00,,,0.00,WUHU216HW,2013-03-09 23:49:00,
2013-03-09 18:54:00,48.5,26.9,26.68,SSE,158,8.2,8.2,43,0.00,,,0.00,WUHU216HW,2013-03-09 23:54:00,
2013-03-09 18:59:00,48.0,26.4,26.69,SE,135,6.0,8.2,43,0.00,,,0.00,WUHU216HW,2013-03-09 23:59:00,
2013-03-09 19:04:00,48.0,26.9,26.69,SE,135,5.3,6.0,44,0.00,,,0.00,WUHU216HW,2013-03-10 00:04:00,
2013-03-09 19:09:00,47.8,26.8,26.69,SE,135,6.9,6.9,44,0.00,,,0.00,WUHU216HW,2013-03-10 00:09:00,
2013-03-09 19:14:00,47.4,27.0,26.69,SSE,158,5.8,6.9,45,0.00,,,0.00,WUHU216HW,2013-03-10 00:14:00,
2013-03-09 19:19:00,47.1,26.7,26.69,SSE,158,7.8,7.8,45,0.00,,,0.00,WUHU216HW,2013-03-10 00:19:00,
2013-03-09 19:24:00,46.9,26.5,26.69,SE,135,5.3,7.8,45,0.00,,,0.00,WUHU216HW,2013-03-10 00:24:00,
2013-03-09 19:29:00,46.5,26.7,26.69,SSE,158,0.0,6.2,46,0.00,,,0.00,WUHU216HW,2013-03-10 00:29:00,
2013-03-09 19:34:00,46.4,26.6,26.69,SE,135,7.8,7.8,46,0.00,,,0.00,WUHU216HW,2013-03-10 00:34:00,
2013-03-09 19:39:00,46.2,26.9,26.69,SSE,158,6.7,7.8,47,0.00,,,0.00,WUHU216HW,2013-03-10 00:39:00,
2013-03-09 19:44:00,46.0,26.8,26.69,SSE,158,7.3,7.6,47,0.00,,,0.00,WUHU216HW,2013-03-10 00:44:00,
2013-03-09 19:49:00,45.8,26.6,26.69,SSE,158,6.4,7.3,47,0.00,,,0.00,WUHU216HW,2013-03-10 00:49:00,
2013-03-09 19:54:00,45.6,26.4,26.69,SSE,158,6.4,7.3,47,0.00,,,0.00,WUHU216HW,2013-03-10 00:54:00,
2013-03-09 19:59:00,45.6,26.4,26.69,SSE,158,6.4,6.4,47,0.00,,,0.00,WUHU216HW,2013-03-10 00:59:00,
2013-03-09 20:04:00,45.6,26.4,26.69,SSE,158,6.4,6.4,47,0.00,,,0.00,WUHU216HW,2013-03-10 01:04:00,
2013-03-09 21:00:00,43.1,26.7,26.69,SSE,158,4.2,8.5,52,0.00,,,0.00,WUHU216HW,2013-03-10 02:00:00,
2013-03-09 21:05:00,43.1,27.1,26.69,SSE,158,4.2,7.8,53,0.00,,,0.00,WUHU216HW,2013-03-10 02:05:00,
2013-03-09 21:10:00,43.1,27.1,26.70,SSE,158,3.8,4.2,53,0.00,,,0.00,WUHU216HW,2013-03-10 02:10:00,
2013-03-09 21:15:00,43.1,27.1,26.70,SSE,158,3.8,4.2,53,0.00,,,0.00,WUHU216HW,2013-03-10 02:15:00,
2013-03-09 21:20:00,43.1,27.1,26.70,SSE,158,3.8,3.8,53,0.00,,,0.00,WUHU216HW,2013-03-10 02:20:00,
2013-03-09 21:25:00,42.0,26.5,26.70,SSE,158,0.0,3.8,54,0.00,,,0.00,WUHU216HW,2013-03-10 02:25:00,
2013-03-09 21:30:00,42.0,26.5,26.70,SE,135,8.0,10.2,54,0.00,,,0.00,WUHU216HW,2013-03-10 02:30:00,
2013-03-09 21:35:00,41.9,26.3,26.71,SE,135,8.7,10.2,54,0.00,,,0.00,WUHU216HW,2013-03-10 02:35:00,
2013-03-09 21:40:00,41.7,26.2,26.70,SSE,158,0.0,8.7,54,0.00,,,0.00,WUHU216HW,2013-03-10 02:40:00,
2013-03-09 21:45:00,41.5,26.4,26.71,SSE,158,7.1,8.7,55,0.00,,,0.00,WUHU216HW,2013-03-10 02:45:00,
2013-03-09 21:50:00,41.3,26.3,26.71,SSE,158,7.1,7.1,55,0.00,,,0.00,WUHU216HW,2013-03-10 02:50:00,
2013-03-09 21:55:00,41.1,26.1,26.71,SE,135,10.0,10.0,55,0.00,,,0.00,WUHU216HW,2013-03-10 02:55:00,
2013-03-09 22:00:00,41.1,26.1,26.71,SSE,158,9.3,10.0,55,0.00,,,0.00,WUHU216HW,2013-03-10 03:00:00,
2013-03-09 22:06:00,41.0,25.9,26.71,SE,135,4.9,9.3,55,0.00,,,0.00,WUHU216HW,2013-03-10 03:06:00,
2013-03-09 22:11:00,40.8,25.7,26.71,SE,135,1.1,9.3,55,0.00,,,0.00,WUHU216HW,2013-03-10 03:11:00,
2013-03-09 22:16:00,40.8,26.2,26.71,SSE,158,2.2,4.9,56,0.00,,,0.00,WUHU216HW,2013-03-10 03:16:00,
2013-03-09 22:21:00,40.6,26.0,26.71,SSE,158,6.9,6.9,56,0.00,,,0.00,WUHU216HW,2013-03-10 03:21:00,
2013-03-09 22:26:00,40.6,26.0,26.71,SSE,158,6.0,6.9,56,0.00,,,0.00,WUHU216HW,2013-03-10 03:26:00,
2013-03-09 22:31:00,40.8,26.2,26.71,SSE,158,7.6,7.6,56,0.00,,,0.00,WUHU216HW,2013-03-10 03:31:00,
2013-03-09 22:36:00,40.8,26.2,26.71,SSE,158,0.0,7.6,56,0.00,,,0.00,WUHU216HW,2013-03-10 03:36:00,
2013-03-09 22:41:00,40.8,26.2,26.71,SSE,158,2.4,7.6,56,0.00,,,0.00,WUHU216HW,2013-03-10 03:41:00,
2013-03-09 22:46:00,40.8,26.2,26.71,SSE,158,1.1,6.9,56,0.00,,,0.00,WUHU216HW,2013-03-10 03:46:00,
2013-03-09 22:51:00,40.8,26.2,26.71,SE,135,3.8,6.9,56,0.00,,,0.00,WUHU216HW,2013-03-10 03:51:00,
2013-03-09 22:56:00,40.8,26.2,26.71,SSE,158,1.7,3.8,56,0.00,,,0.00,WUHU216HW,2013-03-10 03:56:00,
2013-03-09 23:01:00,40.8,26.2,26.71,SSE,158,4.2,7.3,56,0.00,,,0.00,WUHU216HW,2013-03-10 04:01:00,
2013-03-09 23:06:00,40.8,26.2,26.71,SE,135,0.0,7.3,56,0.00,,,0.00,WUHU216HW,2013-03-10 04:06:00,
2013-03-09 23:11:00,40.8,26.2,26.70,SE,135,0.0,4.2,56,0.00,,,0.00,WUHU216HW,2013-03-10 04:11:00,
2013-03-09 23:16:00,40.8,26.2,26.71,SE,135,0.0,0.0,56,0.00,,,0.00,WUHU216HW,2013-03-10 04:16:00,
2013-03-09 23:21:00,40.8,26.2,26.71,SSE,158,7.8,7.8,56,0.00,,,0.00,WUHU216HW,2013-03-10 04:21:00,
2013-03-09 23:26:00,41.0,26.4,26.71,SSE,158,0.0,7.8,56,0.00,,,0.00,WUHU216HW,2013-03-10 04:26:00,
2013-03-09 23:31:00,41.0,26.4,26.71,SE,135,0.0,5.3,56,0.00,,,0.00,WUHU216HW,2013-03-10 04:31:00,
2013-03-09 23:36:00,41.0,26.4,26.71,SSE,158,6.9,6.9,56,0.00,,,0.00,WUHU216HW,2013-03-10 04:36:00,
2013-03-09 23:41:00,41.0,26.4,26.70,SSE,158,7.3,7.3,56,0.00,,,0.00,WUHU216HW,2013-03-10 04:41:00,
2013-03-09 23:46:00,41.0,26.4,26.70,SSE,158,3.5,7.3,56,0.00,,,0.00,WUHU216HW,2013-03-10 04:46:00,
2013-03-09 23:51:00,41.0,26.4,26.70,SSE,158,0.0,7.3,56,0.00,,,0.00,WUHU216HW,2013-03-10 04:51:00,
2013-03-09 23:56:00,40.8,26.2,26.70,SE,135,7.1,7.1,56,0.00,,,0.00,WUHU216HW,2013-03-10 04:56:00,